Location: Düngen
(52.0952°N, 10.0219°E)
Time: 18:50:12
(UTC+00:00)

CZ-4B R/B - Pass Details

Date: 11 March 2026
Orbit: 441 x 562 km, 97.8° (Epoch: 20 April)

Event Time Altitude Azimuth Distance (km) Brightness Sun altitude
Exits shadow 19:42:05 29° 31° (NNE) 1,067 4.2 -22.5°
Drops below altitude 10° 19:44:36 10° 1° (N) 1,870 5.8 -22.8°
Sets 19:46:52 0° 353° (N) 2,764 6.9 -23.1°
